C/2000 B2 (LINEAR) 

T 1999 Nov. 10.00317 TT                                 Nakano

q   3.7762033            (2000.0)            P               Q

                   Peri.  154.58183     -0.26002859     -0.05542403

                   Node   284.98978     +0.62359331     +0.75260181

e   1.0            Incl.   93.65332     +0.73723573     -0.65613924

From 81 observations 2000 Jan. 29-Mar. 30.



NAKANO

         **** Don't distribute anyone except personal use only ****

                (C) Copyright 2000 OAA/ComputingSection

write mail from CFAD0::NAKANO on 2000-11-08 03:10:19(JST).

 



    C/2000 B2 (LINEAR) 

T 1999 Nov. 9.93445 TT                                  Nakano

q   3.7760363            (2000.0)            P               Q

                   Peri.  154.56826     -0.26002230     -0.05546761

                   Node   284.98969     +0.62341368     +0.75275331

e   1.0            Incl.   93.65445     +0.73738985     -0.65596173

From 78 observations 2000 Jan. 29-Mar. 9.



NAKANO

         **** Don't distribute anyone except personal use only ****

                (C) Copyright 2000 OAA/ComputingSection

write mail from CFAD0::NAKANO on 2000-03-21 01:37:42(JST).



    C/2000 B2 (LINEAR) 

T 1999 Nov. 9.27960 TT                                  Nakano

q   3.7746614            (2000.0)            P               Q

                   Peri.  154.44015     -0.25994056     -0.05592617

                   Node   284.98885     +0.62172031     +0.75417161

e   1.0            Incl.   93.66212     +0.73884691     -0.65429156

From 69 observations 2000 Jan. 29-Feb. 11.



NAKANO

         **** Don't distribute anyone except personal use only ****

                (C) Copyright 2000 OAA/ComputingSection

write mail from CFAD0::NAKANO on 2000-02-22 01:35:09(JST).



    C/2000 B2 (LINEAR) 

T 1999 Nov. 8.52314 TT                                  Nakano

q   3.7730932            (2000.0)            P               Q

                   Peri.  154.29220     -0.25983911     -0.05647257

                   Node   284.98798     +0.61976188     +0.75580124

e   1.0            Incl.   93.66991     +0.74052606     -0.65236135

From 66 observations 2000 Jan. 29-Feb. 10.

 

Date/        TT  R.A.(2000) Decl.     Delta   r     Daily motion  Mag.  Moon Age

              h    h  m       。  ,                      ,  / PA 。  m1      。

2000 Feb. 15 12  06 17.27  +32 07.1   3.197  3.873    19.1 / 219  17.4   12  .77

          16 12  06 16.34  +31 52.1   3.212  3.875    18.8 / 218  17.4   15  .87

          17 12  06 15.44  +31 37.2   3.228  3.877    18.5 / 217  17.4   27  .94

          18 12  06 14.57  +31 22.4   3.244  3.879    18.2 / 216  17.4   41  .98

          19 12  06 13.73  +31 07.6   3.260  3.881    17.9 / 215  17.5   55 1.00

          20 12  06 12.93  +30 53.0   3.276  3.883    17.6 / 214  17.5   69  .99

          21 12  06 12.16  +30 38.5   3.293  3.885    17.3 / 214  17.5   83  .96

          22 12  06 11.42  +30 24.1   3.310  3.887    17.0 / 213  17.5   96  .90

          23 12  06 10.72  +30 09.8   3.327  3.890    16.7 / 212  17.5  109  .83

          24 12  06 10.04  +29 55.6   3.344  3.892    16.4 / 211  17.5  122  .75

          25 12  06 09.40  +29 41.5   3.361  3.894    16.1 / 210  17.5  134  .66

          26 12  06 08.78  +29 27.5   3.379  3.896    15.8 / 209  17.6  146  .56

          27 12  06 08.20  +29 13.6   3.397  3.898    15.5 / 208  17.6  158  .47

          28 12  06 07.64  +28 59.9   3.415  3.900    15.3 / 207  17.6  168  .37

          29 12  06 07.12  +28 46.3   3.433  3.903    15.0 / 206  17.6  171  .29

     Mar.  1 12  06 06.62  +28 32.8   3.451  3.905    14.7 / 205  17.6  163  .20

           2 12  06 06.15  +28 19.4   3.469  3.907    14.5 / 204  17.6  152  .13

           3 12  06 05.71  +28 06.2   3.488  3.910    14.2 / 203  17.6  140  .07

           4 12  06 05.30  +27 53.1   3.507  3.912    14.0 / 202  17.6  127  .03

           5 12  06 04.91  +27 40.1   3.526  3.914    13.7 / 200  17.7  115  .01

           6 12  06 04.55  +27 27.2   3.545  3.917    13.5 / 199  17.7  102  .00

           7 12  06 04.22  +27 14.5   3.564  3.919    13.3 / 198  17.7   88  .02

           8 12  06 03.91  +27 01.9   3.583  3.921    13.0 / 197  17.7   75  .06

           9 12  06 03.62  +26 49.4   3.602  3.924    12.8 / 196  17.7   61  .12

          10 12  06 03.36  +26 37.1   3.621  3.926    12.6 / 194  17.7   48  .20

          11 12  06 03.13  +26 24.8   3.641  3.928    12.4 / 193  17.7   34  .30

          12 12  06 02.92  +26 12.7   3.660  3.931    12.2 / 192  17.8   20  .41

          13 12  06 02.73  +26 00.8   3.680  3.933    12.1 / 191  17.8    7  .52

          14 12  06 02.57  +25 48.9   3.700  3.936    11.9 / 189  17.8   10  .64

          15 12  06 02.42  +25 37.2   3.720  3.938    11.7 / 188  17.8   24  .74

NAKANO

         **** Don't distribute anyone except personal use only ****

                (C) Copyright 2000 OAA/ComputingSection

write mail from CFAD0::NAKANO on 2000-02-15 04:04:00(JST).





    C/2000 B2 (LINEAR) 

T 1999 Nov. 13.94726 TT                                 Nakano

q   3.7841479            (2000.0)            P               Q

                   Peri.  155.35003     -0.26059543     -0.05234060

                   Node   284.99163     +0.63365962     +0.74408537

e   1.0            Incl.   93.62753     +0.72839928     -0.66603110

From 33 observations 2000 Jan. 29-Feb. 4.

 

Date/        TT  R.A.(2000) Decl.     Delta   r     Daily motion  Mag.  Moon Age

              h    h  m       。  ,                      ,  / PA 。  m1      。

2000 Feb.  1 12  06 34.08  +35 42.4   3.014  3.849    23.4 / 229  17.2  162  .14

           2 12  06 32.65  +35 26.9   3.025  3.850    23.1 / 228  17.3  165  .08

           3 12  06 31.25  +35 11.4   3.036  3.852    22.8 / 227  17.3  160  .04

           4 12  06 29.89  +34 55.9   3.048  3.854    22.5 / 227  17.3  151  .01

           5 12  06 28.56  +34 40.4   3.060  3.855    22.2 / 226  17.3  139  .00

           6 12  06 27.27  +34 24.9   3.072  3.857    21.9 / 225  17.3  127  .01

           7 12  06 26.02  +34 09.4   3.085  3.859    21.6 / 224  17.3  115  .04

           8 12  06 24.80  +33 53.9   3.098  3.860    21.3 / 224  17.3  102  .09

           9 12  06 23.62  +33 38.5   3.111  3.862    21.0 / 223  17.3   89  .16

          10 12  06 22.47  +33 23.1   3.124  3.864    20.7 / 222  17.3   76  .24

          11 12  06 21.36  +33 07.7   3.138  3.866    20.4 / 222  17.4   63  .34

          12 12  06 20.28  +32 52.4   3.152  3.868    20.1 / 221  17.4   49  .45

          13 12  06 19.24  +32 37.2   3.167  3.869    19.8 / 220  17.4   36  .56

          14 12  06 18.24  +32 22.1   3.182  3.871    19.5 / 219  17.4   23  .67

          15 12  06 17.26  +32 07.0   3.197  3.873    19.2 / 219  17.4   12  .77

          16 12  06 16.33  +31 52.0   3.212  3.875    18.9 / 218  17.4   15  .87

          17 12  06 15.42  +31 37.0   3.228  3.877    18.5 / 217  17.4   27  .94

          18 12  06 14.55  +31 22.2   3.243  3.879    18.2 / 216  17.4   41  .98

          19 12  06 13.72  +31 07.5   3.259  3.881    17.9 / 215  17.5   55 1.00

          20 12  06 12.91  +30 52.8   3.276  3.883    17.6 / 214  17.5   69  .99

          21 12  06 12.14  +30 38.3   3.292  3.885    17.3 / 214  17.5   83  .96

          22 12  06 11.40  +30 23.8   3.309  3.887    17.0 / 213  17.5   96  .90

          23 12  06 10.70  +30 09.5   3.326  3.889    16.7 / 212  17.5  109  .83

          24 12  06 10.02  +29 55.3   3.343  3.891    16.4 / 211  17.5  122  .75

          25 12  06 09.37  +29 41.2   3.360  3.893    16.1 / 210  17.5  134  .66

          26 12  06 08.76  +29 27.2   3.378  3.895    15.8 / 209  17.5  146  .56

          27 12  06 08.17  +29 13.3   3.395  3.897    15.6 / 208  17.6  158  .47

          28 12  06 07.62  +28 59.5   3.413  3.899    15.3 / 207  17.6  168  .37

          29 12  06 07.09  +28 45.9   3.431  3.901    15.0 / 206  17.6  171  .29

     Mar.  1 12  06 06.59  +28 32.4   3.449  3.903    14.8 / 205  17.6  163  .20

NAKANO

         **** Don't distribute anyone except personal use only ****

                (C) Copyright 2000 OAA/ComputingSection

write mail from CFAD0::NAKANO on 2000-02-06 02:41:15(JST).

 



◎P/2000 B3の軌道と予報位置です

  858のコ−ドを調べている時間がありませんので,とりあえず.



    P/2000 B3 (LINEAR) 

T 2000 Feb. 14.06799 TT                                 Nakano

q   1.6976931            (2000.0)            P               Q

n   0.12468479     Peri.  130.38592     -0.54137796     -0.84037993

a   3.9682016      Node   352.26102     +0.70128277     -0.43434004

e   0.5721757      Incl.   11.09481     +0.46380210     -0.32420720

P   7.90

From 22 observations 2000 Jan. 27-Feb. 4.

 

Date/        TT  R.A.(2000) Decl.     Delta   r     Daily motion  Mag.  Moon Age

              h    h  m       。  ,                      ,  / PA 。  m1      。

2000 Feb.  1 12  06 30.84  +42 36.8   0.826  1.702    13.8 / 164  17.4  156  .14

           2 12  06 31.19  +42 23.5   0.830  1.702    14.2 / 162  17.4  158  .08

           3 12  06 31.59  +42 10.0   0.833  1.701    14.5 / 160  17.4  155  .04

           4 12  06 32.03  +41 56.4   0.837  1.700    14.9 / 158  17.4  148  .01

           5 12  06 32.52  +41 42.6   0.840  1.700    15.2 / 157  17.4  138  .00

           6 12  06 33.06  +41 28.6   0.844  1.699    15.6 / 155  17.4  127  .01

           7 12  06 33.65  +41 14.5   0.848  1.699    16.0 / 153  17.4  116  .04

           8 12  06 34.28  +41 00.2   0.852  1.699    16.4 / 152  17.5  104  .09

           9 12  06 34.96  +40 45.8   0.857  1.698    16.7 / 150  17.5   92  .16

          10 12  06 35.69  +40 31.2   0.861  1.698    17.1 / 149  17.5   80  .24

          11 12  06 36.46  +40 16.6   0.866  1.698    17.5 / 148  17.5   67  .34

          12 12  06 37.27  +40 01.8   0.871  1.698    17.9 / 146  17.5   55  .45

          13 12  06 38.13  +39 46.9   0.875  1.698    18.2 / 145  17.5   42  .56

          14 12  06 39.03  +39 32.0   0.880  1.698    18.6 / 144  17.5   30  .67

          15 12  06 39.98  +39 16.9   0.886  1.698    19.0 / 143  17.5   21  .77

          16 12  06 40.96  +39 01.8   0.891  1.698    19.3 / 142  17.5   19  .87

          17 12  06 41.99  +38 46.6   0.896  1.698    19.7 / 141  17.6   26  .94

          18 12  06 43.06  +38 31.3   0.902  1.698    20.1 / 140  17.6   37  .98

          19 12  06 44.16  +38 16.0   0.907  1.699    20.4 / 139  17.6   50 1.00

          20 12  06 45.30  +38 00.7   0.913  1.699    20.8 / 138  17.6   63  .99

          21 12  06 46.48  +37 45.3   0.919  1.699    21.1 / 137  17.6   76  .96

          22 12  06 47.69  +37 29.8   0.925  1.700    21.5 / 136  17.6   88  .90

          23 12  06 48.94  +37 14.3   0.931  1.700    21.8 / 135  17.6  101  .83

          24 12  06 50.22  +36 58.7   0.937  1.701    22.2 / 135  17.7  113  .75

          25 12  06 51.54  +36 43.2   0.943  1.702    22.5 / 134  17.7  124  .66

          26 12  06 52.88  +36 27.6   0.950  1.702    22.8 / 133  17.7  135  .56

          27 12  06 54.26  +36 11.9   0.957  1.703    23.2 / 132  17.7  146  .47

          28 12  06 55.67  +35 56.3   0.963  1.704    23.5 / 132  17.7  156  .37

          29 12  06 57.11  +35 40.6   0.970  1.705    23.8 / 131  17.8  164  .29

     Mar.  1 12  06 58.57  +35 24.9   0.977  1.706    24.1 / 131  17.8  165  .20

NAKANO

         **** Don't distribute anyone except personal use only ****

                (C) Copyright 2000 OAA/ComputingSection

write mail from CFAD0::NAKANO on 2000-02-06 02:54:44(JST).



戻ります。